Time,TemperatureF,DewpointF,PressureIn,WindDirection,WindDirectionDegrees,WindSpeedMPH,WindSpeedGustMPH,Humidity,HourlyPrecipIn,Conditions,Clouds,dailyrainin,SoftwareType,DateUTC
2013-03-01 00:00:00,59.0,48.0,29.93,WNW,297,2.0,7.0,67,0.00,,,0.00,meteohub,2013-03-01 05:00:00,
2013-03-01 00:02:00,59.0,48.0,29.93,WNW,296,3.0,7.0,67,0.00,,,0.00,meteohub,2013-03-01 05:02:00,
2013-03-01 00:03:00,58.8,48.2,29.93,WNW,296,2.0,7.0,68,0.00,,,0.00,meteohub,2013-03-01 05:03:00,
2013-03-01 00:07:00,58.8,48.2,29.93,WNW,296,2.0,7.0,68,0.00,,,0.00,meteohub,2013-03-01 05:07:00,
2013-03-01 00:12:00,58.8,48.2,29.93,WNW,282,4.0,7.0,68,0.00,,,0.00,meteohub,2013-03-01 05:12:00,
2013-03-01 00:17:00,58.8,48.7,29.93,WNW,286,3.0,7.0,69,0.00,,,0.00,meteohub,2013-03-01 05:17:00,
2013-03-01 00:22:00,58.8,48.7,29.93,WNW,294,4.0,7.0,69,0.00,,,0.00,meteohub,2013-03-01 05:22:00,
2013-03-01 00:27:00,59.0,48.4,29.93,WNW,295,2.0,7.0,68,0.00,,,0.00,meteohub,2013-03-01 05:27:00,
2013-03-01 00:32:00,59.0,48.0,29.93,WNW,290,3.0,8.0,67,0.00,,,0.00,meteohub,2013-03-01 05:32:00,
2013-03-01 00:37:00,59.0,48.0,29.93,NW,311,3.0,8.0,67,0.00,,,0.00,meteohub,2013-03-01 05:37:00,
2013-03-01 00:42:00,59.2,48.2,29.93,WNW,290,6.0,8.0,67,0.00,,,0.00,meteohub,2013-03-01 05:42:00,
2013-03-01 00:47:00,59.2,48.2,29.93,West,281,5.0,8.0,67,0.00,,,0.00,meteohub,2013-03-01 05:47:00,
2013-03-01 00:52:00,59.2,48.6,29.93,WNW,287,4.0,8.0,68,0.00,,,0.00,meteohub,2013-03-01 05:52:00,
2013-03-01 00:57:00,59.2,48.2,29.93,NW,306,5.0,11.0,67,0.00,,,0.00,meteohub,2013-03-01 05:57:00,
2013-03-01 01:03:00,59.2,48.6,29.93,NW,309,4.0,11.0,68,0.00,,,0.00,meteohub,2013-03-01 06:03:00,
2013-03-01 01:08:00,59.2,49.1,29.94,WNW,288,10.0,11.0,69,0.00,,,0.00,meteohub,2013-03-01 06:08:00,
2013-03-01 01:13:00,59.2,49.1,29.94,West,278,5.0,11.0,69,0.00,,,0.00,meteohub,2013-03-01 06:13:00,
2013-03-01 01:18:00,59.2,49.1,29.94,WNW,294,8.0,10.0,69,0.00,,,0.00,meteohub,2013-03-01 06:18:00,
2013-03-01 01:23:00,59.2,49.1,29.93,WNW,287,7.0,11.0,69,0.00,,,0.00,meteohub,2013-03-01 06:23:00,
2013-03-01 01:28:00,59.2,49.1,29.94,NW,315,5.0,11.0,69,0.00,,,0.00,meteohub,2013-03-01 06:28:00,
2013-03-01 01:33:00,59.2,49.1,29.93,NW,309,3.0,11.0,69,0.00,,,0.00,meteohub,2013-03-01 06:33:00,
2013-03-01 01:38:00,59.0,48.4,29.93,West,271,4.0,9.0,68,0.00,,,0.00,meteohub,2013-03-01 06:38:00,
2013-03-01 01:43:00,59.0,48.9,29.93,WNW,290,4.0,9.0,69,0.00,,,0.00,meteohub,2013-03-01 06:43:00,
2013-03-01 01:48:00,59.2,49.1,29.92,WNW,301,4.0,10.0,69,0.00,,,0.00,meteohub,2013-03-01 06:48:00,
2013-03-01 01:54:00,59.2,48.6,29.92,WNW,294,6.0,10.0,68,0.00,,,0.00,meteohub,2013-03-01 06:54:00,
2013-03-01 01:59:00,59.0,48.0,29.92,WNW,292,5.0,10.0,67,0.00,,,0.00,meteohub,2013-03-01 06:59:00,
2013-03-01 02:04:00,59.0,48.0,29.92,NNW,340,4.0,10.0,67,0.00,,,0.00,meteohub,2013-03-01 07:04:00,
2013-03-01 02:09:00,59.2,48.2,29.92,West,274,4.0,9.0,67,0.00,,,0.00,meteohub,2013-03-01 07:09:00,
2013-03-01 02:14:00,59.2,48.6,29.92,WNW,303,6.0,10.0,68,0.00,,,0.00,meteohub,2013-03-01 07:14:00,
2013-03-01 02:19:00,59.0,48.4,29.92,WNW,288,5.0,12.0,68,0.00,,,0.00,meteohub,2013-03-01 07:19:00,
2013-03-01 02:24:00,58.8,48.7,29.91,WNW,300,4.0,12.0,69,0.00,,,0.00,meteohub,2013-03-01 07:24:00,
2013-03-01 02:29:00,58.6,48.6,29.91,WNW,302,4.0,8.0,69,0.00,,,0.00,meteohub,2013-03-01 07:29:00,
2013-03-01 02:34:00,58.6,48.6,29.91,NW,315,7.0,8.0,69,0.00,,,0.00,meteohub,2013-03-01 07:34:00,
2013-03-01 02:39:00,58.6,48.6,29.91,NW,308,3.0,8.0,69,0.00,,,0.00,meteohub,2013-03-01 07:39:00,
2013-03-01 02:45:00,58.6,48.6,29.91,WNW,302,6.0,8.0,69,0.00,,,0.00,meteohub,2013-03-01 07:45:00,
2013-03-01 02:50:00,58.6,48.6,29.91,WNW,289,5.0,10.0,69,0.00,,,0.00,meteohub,2013-03-01 07:50:00,
2013-03-01 02:55:00,58.6,48.6,29.91,WNW,292,4.0,11.0,69,0.00,,,0.00,meteohub,2013-03-01 07:55:00,
2013-03-01 03:00:00,58.6,48.9,29.91,NW,318,4.0,11.0,70,0.00,,,0.00,meteohub,2013-03-01 08:00:00,
2013-03-01 03:05:00,58.6,48.9,29.91,NW,310,3.0,11.0,70,0.00,,,0.00,meteohub,2013-03-01 08:05:00,
2013-03-01 03:10:00,58.5,49.1,29.91,WNW,296,6.0,8.0,71,0.00,,,0.00,meteohub,2013-03-01 08:10:00,
2013-03-01 03:15:00,58.5,48.7,29.91,WNW,303,3.0,8.0,70,0.00,,,0.00,meteohub,2013-03-01 08:15:00,
2013-03-01 03:20:00,58.5,48.7,29.90,WNW,294,5.0,9.0,70,0.00,,,0.00,meteohub,2013-03-01 08:20:00,
2013-03-01 03:25:00,58.5,49.1,29.90,NW,323,2.0,9.0,71,0.00,,,0.00,meteohub,2013-03-01 08:25:00,
2013-03-01 03:31:00,58.3,48.9,29.90,NW,310,2.0,8.0,71,0.00,,,0.00,meteohub,2013-03-01 08:31:00,
2013-03-01 03:36:00,58.1,48.7,29.90,WNW,293,3.0,8.0,71,0.00,,,0.00,meteohub,2013-03-01 08:36:00,
2013-03-01 03:41:00,57.9,48.6,29.90,NW,309,5.0,6.0,71,0.00,,,0.00,meteohub,2013-03-01 08:41:00,
2013-03-01 03:46:00,58.1,48.7,29.90,NW,320,2.0,7.0,71,0.00,,,0.00,meteohub,2013-03-01 08:46:00,
2013-03-01 03:51:00,58.3,48.9,29.90,NW,309,2.0,7.0,71,0.00,,,0.00,meteohub,2013-03-01 08:51:00,
2013-03-01 03:56:00,57.9,48.6,29.90,NW,321,3.0,7.0,71,0.00,,,0.00,meteohub,2013-03-01 08:56:00,
2013-03-01 04:01:00,57.9,48.9,29.90,NW,321,0.0,7.0,72,0.00,,,0.00,meteohub,2013-03-01 09:01:00,
2013-03-01 04:06:00,57.7,48.7,29.90,NW,321,2.0,5.0,72,0.00,,,0.00,meteohub,2013-03-01 09:06:00,
2013-03-01 04:11:00,57.6,48.6,29.90,NW,321,2.0,6.0,72,0.00,,,0.00,meteohub,2013-03-01 09:11:00,
2013-03-01 04:16:00,57.7,48.7,29.90,NW,316,3.0,6.0,72,0.00,,,0.00,meteohub,2013-03-01 09:16:00,
2013-03-01 04:21:00,57.7,48.4,29.90,NW,314,3.0,7.0,71,0.00,,,0.00,meteohub,2013-03-01 09:21:00,
2013-03-01 04:27:00,57.9,48.6,29.90,NW,317,2.0,7.0,71,0.00,,,0.00,meteohub,2013-03-01 09:27:00,
2013-03-01 04:32:00,57.7,48.7,29.90,NW,317,2.0,7.0,72,0.00,,,0.00,meteohub,2013-03-01 09:32:00,
2013-03-01 04:37:00,57.7,48.7,29.90,NW,315,2.0,6.0,72,0.00,,,0.00,meteohub,2013-03-01 09:37:00,
2013-03-01 04:42:00,57.7,48.7,29.90,NW,319,2.0,7.0,72,0.00,,,0.00,meteohub,2013-03-01 09:42:00,
2013-03-01 04:47:00,57.7,48.4,29.90,NW,326,3.0,7.0,71,0.00,,,0.00,meteohub,2013-03-01 09:47:00,
2013-03-01 04:52:00,57.9,48.6,29.90,NW,304,2.0,6.0,71,0.00,,,0.00,meteohub,2013-03-01 09:52:00,
2013-03-01 04:57:00,57.9,48.2,29.90,NW,314,4.0,7.0,70,0.00,,,0.00,meteohub,2013-03-01 09:57:00,
2013-03-01 05:02:00,57.9,48.2,29.91,NW,324,3.0,8.0,70,0.00,,,0.00,meteohub,2013-03-01 10:02:00,
2013-03-01 05:07:00,57.9,48.2,29.91,NW,318,5.0,8.0,70,0.00,,,0.00,meteohub,2013-03-01 10:07:00,
2013-03-01 05:12:00,57.9,48.2,29.91,NNW,338,3.0,8.0,70,0.00,,,0.00,meteohub,2013-03-01 10:12:00,
2013-03-01 05:17:00,57.9,48.2,29.91,NW,321,2.0,7.0,70,0.00,,,0.00,meteohub,2013-03-01 10:17:00,
2013-03-01 05:22:00,57.9,47.8,29.92,North,5,1.0,7.0,69,0.00,,,0.00,meteohub,2013-03-01 10:22:00,
2013-03-01 05:27:00,57.6,47.1,29.92,North,9,1.0,7.0,68,0.00,,,0.00,meteohub,2013-03-01 10:27:00,
2013-03-01 05:32:00,56.8,46.8,29.92,North,9,2.0,7.0,69,0.00,,,0.00,meteohub,2013-03-01 10:32:00,
2013-03-01 05:37:00,56.3,46.2,29.92,North,5,1.0,6.0,69,0.00,,,0.00,meteohub,2013-03-01 10:37:00,
2013-03-01 05:42:00,55.8,46.0,29.92,North,0,0.0,6.0,70,0.00,,,0.00,meteohub,2013-03-01 10:42:00,
2013-03-01 05:47:00,55.2,45.7,29.92,NNE,20,1.0,5.0,70,0.00,,,0.00,meteohub,2013-03-01 10:47:00,
2013-03-01 05:52:00,54.9,45.7,29.92,NNE,24,0.0,4.0,71,0.00,,,0.00,meteohub,2013-03-01 10:52:00,
2013-03-01 05:57:00,54.7,45.9,29.93,NNE,24,1.0,4.0,72,0.00,,,0.00,meteohub,2013-03-01 10:57:00,
2013-03-01 06:02:00,54.1,45.3,29.93,NNE,24,0.0,3.0,72,0.00,,,0.00,meteohub,2013-03-01 11:02:00,
2013-03-01 06:07:00,54.0,45.1,29.93,NNE,31,0.0,3.0,72,0.00,,,0.00,meteohub,2013-03-01 11:07:00,
2013-03-01 06:13:00,53.8,45.0,29.93,NNE,31,2.0,4.0,72,0.00,,,0.00,meteohub,2013-03-01 11:13:00,
2013-03-01 06:18:00,53.4,44.2,29.94,NNE,32,1.0,4.0,71,0.00,,,0.00,meteohub,2013-03-01 11:18:00,
2013-03-01 06:23:00,53.2,44.1,29.94,NNE,32,1.0,4.0,71,0.00,,,0.00,meteohub,2013-03-01 11:23:00,
2013-03-01 06:28:00,53.2,43.3,29.94,ESE,109,1.0,4.0,69,0.00,,,0.00,meteohub,2013-03-01 11:28:00,
2013-03-01 06:33:00,53.1,42.8,29.94,ENE,71,1.0,5.0,68,0.00,,,0.00,meteohub,2013-03-01 11:33:00,
2013-03-01 06:38:00,53.1,42.8,29.94,ENE,71,2.0,6.0,68,0.00,,,0.00,meteohub,2013-03-01 11:38:00,
2013-03-01 06:43:00,52.9,42.3,29.94,NNW,343,2.0,6.0,67,0.00,,,0.00,meteohub,2013-03-01 11:43:00,
2013-03-01 06:48:00,52.7,41.7,29.94,ENE,68,4.0,6.0,66,0.00,,,0.00,meteohub,2013-03-01 11:48:00,
2013-03-01 06:53:00,52.5,41.5,29.94,NNE,30,0.0,8.0,66,0.00,,,0.00,meteohub,2013-03-01 11:53:00,
2013-03-01 06:55:00,52.5,41.5,29.94,NNE,32,1.0,8.0,66,0.00,,,0.00,meteohub,2013-03-01 11:55:00,
2013-03-01 07:02:00,52.3,41.7,29.94,NNW,345,0.0,8.0,67,0.00,,,0.00,meteohub,2013-03-01 12:02:00,
2013-03-01 07:07:00,52.2,41.5,29.95,NNW,345,1.0,6.0,67,0.00,,,0.00,meteohub,2013-03-01 12:07:00,
2013-03-01 07:12:00,52.0,41.4,29.95,ESE,107,1.0,5.0,67,0.00,,,0.00,meteohub,2013-03-01 12:12:00,
2013-03-01 07:17:00,52.0,41.4,29.95,ESE,106,1.0,5.0,67,0.00,,,0.00,meteohub,2013-03-01 12:17:00,
2013-03-01 07:22:00,52.0,41.4,29.95,East,101,1.0,5.0,67,0.00,,,0.00,meteohub,2013-03-01 12:22:00,
2013-03-01 07:27:00,52.0,41.4,29.95,East,88,1.0,5.0,67,0.00,,,0.00,meteohub,2013-03-01 12:27:00,
2013-03-01 07:32:00,52.0,41.4,29.96,East,88,1.0,5.0,67,0.00,,,0.00,meteohub,2013-03-01 12:32:00,
2013-03-01 07:37:00,51.8,40.8,29.96,East,86,1.0,5.0,66,0.00,,,0.00,meteohub,2013-03-01 12:37:00,
2013-03-01 07:42:00,51.8,40.8,29.96,East,86,2.0,5.0,66,0.00,,,0.00,meteohub,2013-03-01 12:42:00,
2013-03-01 07:47:00,52.0,41.4,29.96,East,86,1.0,3.0,67,0.00,,,0.00,meteohub,2013-03-01 12:47:00,
2013-03-01 07:52:00,52.2,41.2,29.96,East,82,1.0,3.0,66,0.00,,,0.00,meteohub,2013-03-01 12:52:00,
2013-03-01 07:58:00,52.9,41.0,29.96,East,82,1.0,3.0,64,0.00,,,0.00,meteohub,2013-03-01 12:58:00,
2013-03-01 08:03:00,53.6,41.4,29.97,East,82,2.0,3.0,63,0.00,,,0.00,meteohub,2013-03-01 13:03:00,
2013-03-01 08:08:00,54.1,41.0,29.97,East,81,2.0,6.0,61,0.00,,,0.00,meteohub,2013-03-01 13:08:00,
2013-03-01 08:13:00,54.7,40.6,29.96,East,81,1.0,6.0,59,0.00,,,0.00,meteohub,2013-03-01 13:13:00,
2013-03-01 08:18:00,55.2,41.2,29.97,NNE,30,3.0,6.0,59,0.00,,,0.00,meteohub,2013-03-01 13:18:00,
2013-03-01 08:23:00,55.6,41.0,29.97,NE,42,3.0,5.0,58,0.00,,,0.00,meteohub,2013-03-01 13:23:00,
2013-03-01 08:28:00,56.5,41.0,29.97,NNE,16,2.0,7.0,56,0.00,,,0.00,meteohub,2013-03-01 13:28:00,
2013-03-01 08:33:00,57.4,41.4,29.97,NE,38,2.0,7.0,55,0.00,,,0.00,meteohub,2013-03-01 13:33:00,
2013-03-01 08:38:00,57.9,40.5,29.97,NNE,12,3.0,7.0,52,0.00,,,0.00,meteohub,2013-03-01 13:38:00,
2013-03-01 08:43:00,58.3,40.8,29.98,ENE,58,2.0,5.0,52,0.00,,,0.00,meteohub,2013-03-01 13:43:00,
2013-03-01 08:48:00,59.2,41.5,29.98,NNW,348,3.0,5.0,52,0.00,,,0.00,meteohub,2013-03-01 13:48:00,
2013-03-01 08:53:00,59.7,41.0,29.97,North,5,1.0,5.0,50,0.00,,,0.00,meteohub,2013-03-01 13:53:00,
2013-03-01 08:58:00,59.5,40.8,29.98,North,355,2.0,5.0,50,0.00,,,0.00,meteohub,2013-03-01 13:58:00,
2013-03-01 09:03:00,59.2,41.0,29.98,East,79,2.0,6.0,51,0.00,,,0.00,meteohub,2013-03-01 14:03:00,
2013-03-01 09:08:00,58.5,41.4,29.98,ENE,78,2.0,6.0,53,0.00,,,0.00,meteohub,2013-03-01 14:08:00,
2013-03-01 09:13:00,57.7,42.1,29.98,NNW,338,2.0,6.0,56,0.00,,,0.00,meteohub,2013-03-01 14:13:00,
2013-03-01 09:18:00,57.2,41.7,29.98,North,5,1.0,6.0,56,0.00,,,0.00,meteohub,2013-03-01 14:18:00,
2013-03-01 09:24:00,57.0,41.9,29.98,ENE,65,0.0,7.0,57,0.00,,,0.00,meteohub,2013-03-01 14:24:00,
2013-03-01 09:29:00,57.0,42.4,29.98,ENE,64,2.0,7.0,58,0.00,,,0.00,meteohub,2013-03-01 14:29:00,
2013-03-01 09:34:00,57.0,42.4,29.98,NNW,342,2.0,5.0,58,0.00,,,0.00,meteohub,2013-03-01 14:34:00,
2013-03-01 09:39:00,57.0,42.4,29.98,NNW,344,0.0,7.0,58,0.00,,,0.00,meteohub,2013-03-01 14:39:00,
2013-03-01 09:44:00,57.4,42.3,29.98,ESE,118,3.0,7.0,57,0.00,,,0.00,meteohub,2013-03-01 14:44:00,
2013-03-01 09:49:00,57.2,42.1,29.98,NNE,29,3.0,7.0,57,0.00,,,0.00,meteohub,2013-03-01 14:49:00,
2013-03-01 09:54:00,57.2,42.6,29.98,NNW,337,5.0,5.0,58,0.00,,,0.00,meteohub,2013-03-01 14:54:00,
2013-03-01 09:59:00,57.0,42.4,29.98,NW,325,5.0,5.0,58,0.00,,,0.00,meteohub,2013-03-01 14:59:00,
2013-03-01 10:04:00,57.2,43.0,29.99,NNW,332,3.0,6.0,59,0.00,,,0.00,meteohub,2013-03-01 15:04:00,
2013-03-01 10:09:00,57.6,43.0,29.99,NNW,339,4.0,6.0,58,0.00,,,0.00,meteohub,2013-03-01 15:09:00,
2013-03-01 10:14:00,58.6,43.9,29.99,NNW,334,2.0,6.0,58,0.00,,,0.00,meteohub,2013-03-01 15:14:00,
2013-03-01 10:19:00,59.7,43.5,30.00,North,351,4.0,6.0,55,0.00,,,0.00,meteohub,2013-03-01 15:19:00,
2013-03-01 10:24:00,60.4,43.7,29.99,NW,315,6.0,9.0,54,0.00,,,0.00,meteohub,2013-03-01 15:24:00,
2013-03-01 10:29:00,60.4,44.6,29.99,NNW,327,1.0,9.0,56,0.00,,,0.00,meteohub,2013-03-01 15:29:00,
2013-03-01 10:34:00,61.5,44.8,29.99,NW,309,5.0,9.0,54,0.00,,,0.00,meteohub,2013-03-01 15:34:00,
2013-03-01 10:39:00,61.5,44.8,29.99,NW,324,6.0,9.0,54,0.00,,,0.00,meteohub,2013-03-01 15:39:00,
2013-03-01 10:45:00,61.0,44.8,29.99,NNW,332,5.0,9.0,55,0.00,,,0.00,meteohub,2013-03-01 15:45:00,
2013-03-01 10:50:00,60.1,44.4,29.99,WNW,296,3.0,9.0,56,0.00,,,0.00,meteohub,2013-03-01 15:50:00,
2013-03-01 10:55:00,60.3,45.0,29.99,NW,311,6.0,9.0,57,0.00,,,0.00,meteohub,2013-03-01 15:55:00,
2013-03-01 11:00:00,60.3,45.0,29.99,NNW,330,1.0,9.0,57,0.00,,,0.00,meteohub,2013-03-01 16:00:00,
2013-03-01 11:05:00,60.6,45.3,29.99,NNW,342,2.0,9.0,57,0.00,,,0.00,meteohub,2013-03-01 16:05:00,
2013-03-01 11:10:00,59.9,44.6,29.99,NW,316,2.0,11.0,57,0.00,,,0.00,meteohub,2013-03-01 16:10:00,
2013-03-01 11:15:00,59.2,44.8,29.99,NW,325,8.0,11.0,59,0.00,,,0.00,meteohub,2013-03-01 16:15:00,
2013-03-01 11:20:00,59.2,45.3,29.99,NNW,329,2.0,11.0,60,0.00,,,0.00,meteohub,2013-03-01 16:20:00,
2013-03-01 11:25:00,60.3,45.9,29.99,WNW,302,6.0,11.0,59,0.00,,,0.00,meteohub,2013-03-01 16:25:00,
2013-03-01 11:30:00,60.8,45.5,29.99,NNW,331,4.0,10.0,57,0.00,,,0.00,meteohub,2013-03-01 16:30:00,
2013-03-01 11:35:00,60.8,45.5,29.99,NW,311,4.0,10.0,57,0.00,,,0.00,meteohub,2013-03-01 16:35:00,
2013-03-01 11:40:00,60.4,45.1,29.99,NW,316,5.0,10.0,57,0.00,,,0.00,meteohub,2013-03-01 16:40:00,
2013-03-01 11:45:00,61.0,45.7,29.99,NW,315,5.0,11.0,57,0.00,,,0.00,meteohub,2013-03-01 16:45:00,
2013-03-01 11:50:00,61.2,45.9,29.98,NW,321,7.0,11.0,57,0.00,,,0.00,meteohub,2013-03-01 16:50:00,
2013-03-01 11:55:00,61.2,45.9,29.98,NW,311,6.0,11.0,57,0.00,,,0.00,meteohub,2013-03-01 16:55:00,
2013-03-01 12:01:00,61.5,45.7,29.97,NW,308,3.0,10.0,56,0.00,,,0.00,meteohub,2013-03-01 17:01:00,
2013-03-01 12:06:00,61.5,45.7,29.97,NW,308,4.0,11.0,56,0.00,,,0.00,meteohub,2013-03-01 17:06:00,
2013-03-01 12:11:00,61.5,45.7,29.97,West,274,3.0,11.0,56,0.00,,,0.00,meteohub,2013-03-01 17:11:00,
2013-03-01 12:16:00,61.5,45.7,29.97,NW,309,6.0,14.0,56,0.00,,,0.00,meteohub,2013-03-01 17:16:00,
2013-03-01 12:21:00,60.4,45.7,29.97,NW,324,4.0,14.0,58,0.00,,,0.00,meteohub,2013-03-01 17:21:00,
2013-03-01 12:26:00,60.6,46.2,29.97,NW,307,4.0,14.0,59,0.00,,,0.00,meteohub,2013-03-01 17:26:00,
2013-03-01 12:31:00,60.8,45.5,29.97,NNW,344,4.0,11.0,57,0.00,,,0.00,meteohub,2013-03-01 17:31:00,
2013-03-01 12:36:00,60.4,45.7,29.97,NNW,332,2.0,10.0,58,0.00,,,0.00,meteohub,2013-03-01 17:36:00,
2013-03-01 12:41:00,60.6,45.7,29.97,NNW,348,5.0,10.0,58,0.00,,,0.00,meteohub,2013-03-01 17:41:00,
2013-03-01 12:46:00,61.3,45.5,29.96,West,263,4.0,10.0,56,0.00,,,0.00,meteohub,2013-03-01 17:46:00,
2013-03-01 12:51:00,62.8,46.4,29.96,NNW,337,9.0,11.0,55,0.00,,,0.00,meteohub,2013-03-01 17:51:00,
2013-03-01 12:56:00,62.8,46.4,29.96,ENE,65,5.0,11.0,55,0.00,,,0.00,meteohub,2013-03-01 17:56:00,
2013-03-01 13:01:00,62.1,45.7,29.96,NW,320,5.0,11.0,55,0.00,,,0.00,meteohub,2013-03-01 18:01:00,
2013-03-01 13:07:00,61.5,45.7,29.95,NW,306,3.0,11.0,56,0.00,,,0.00,meteohub,2013-03-01 18:07:00,
2013-03-01 13:12:00,61.3,46.0,29.95,NW,320,5.0,11.0,57,0.00,,,0.00,meteohub,2013-03-01 18:12:00,
2013-03-01 13:17:00,60.8,45.9,29.95,NNW,327,3.0,11.0,58,0.00,,,0.00,meteohub,2013-03-01 18:17:00,
2013-03-01 13:22:00,60.8,46.4,29.94,NW,309,5.0,11.0,59,0.00,,,0.00,meteohub,2013-03-01 18:22:00,
2013-03-01 13:27:00,60.6,45.7,29.94,West,267,5.0,11.0,58,0.00,,,0.00,meteohub,2013-03-01 18:27:00,
2013-03-01 13:32:00,60.6,45.7,29.94,NNW,337,3.0,9.0,58,0.00,,,0.00,meteohub,2013-03-01 18:32:00,
2013-03-01 13:37:00,60.4,46.0,29.94,NW,321,2.0,13.0,59,0.00,,,0.00,meteohub,2013-03-01 18:37:00,
2013-03-01 13:42:00,60.1,45.7,29.94,NW,314,5.0,13.0,59,0.00,,,0.00,meteohub,2013-03-01 18:42:00,
2013-03-01 13:47:00,60.3,46.4,29.94,NW,315,6.0,12.0,60,0.00,,,0.00,meteohub,2013-03-01 18:47:00,
2013-03-01 13:52:00,60.3,45.9,29.94,WNW,303,5.0,12.0,59,0.00,,,0.00,meteohub,2013-03-01 18:52:00,
2013-03-01 13:57:00,60.3,45.5,29.94,WNW,283,9.0,11.0,58,0.00,,,0.00,meteohub,2013-03-01 18:57:00,
2013-03-01 14:02:00,60.8,45.9,29.94,West,281,7.0,13.0,58,0.00,,,0.00,meteohub,2013-03-01 19:02:00,
2013-03-01 14:07:00,61.5,46.2,29.93,WNW,284,6.0,13.0,57,0.00,,,0.00,meteohub,2013-03-01 19:07:00,
2013-03-01 14:12:00,61.5,46.6,29.93,NW,305,9.0,13.0,58,0.00,,,0.00,meteohub,2013-03-01 19:12:00,
2013-03-01 14:17:00,61.5,45.7,29.94,NW,305,4.0,10.0,56,0.00,,,0.00,meteohub,2013-03-01 19:17:00,
2013-03-01 14:22:00,61.9,46.0,29.93,WNW,287,7.0,11.0,56,0.00,,,0.00,meteohub,2013-03-01 19:22:00,
2013-03-01 14:27:00,61.7,45.3,29.93,WNW,285,3.0,11.0,55,0.00,,,0.00,meteohub,2013-03-01 19:27:00,
2013-03-01 14:32:00,61.2,45.3,29.94,NW,310,5.0,12.0,56,0.00,,,0.00,meteohub,2013-03-01 19:32:00,
2013-03-01 14:37:00,61.0,45.7,29.93,NW,322,7.0,12.0,57,0.00,,,0.00,meteohub,2013-03-01 19:37:00,
2013-03-01 14:42:00,61.3,46.0,29.93,WNW,290,8.0,12.0,57,0.00,,,0.00,meteohub,2013-03-01 19:42:00,
2013-03-01 14:47:00,61.9,45.5,29.93,WNW,300,2.0,12.0,55,0.00,,,0.00,meteohub,2013-03-01 19:47:00,
2013-03-01 14:52:00,62.1,45.1,29.94,WSW,258,6.0,12.0,54,0.00,,,0.00,meteohub,2013-03-01 19:52:00,
2013-03-01 14:57:00,61.9,45.1,29.94,WNW,303,4.0,11.0,54,0.00,,,0.00,meteohub,2013-03-01 19:57:00,
2013-03-01 15:02:00,61.2,44.8,29.94,NW,309,5.0,12.0,55,0.00,,,0.00,meteohub,2013-03-01 20:02:00,
2013-03-01 15:07:00,60.6,44.8,29.94,NW,317,8.0,12.0,56,0.00,,,0.00,meteohub,2013-03-01 20:07:00,
2013-03-01 15:12:00,60.1,44.8,29.94,WNW,294,5.0,12.0,57,0.00,,,0.00,meteohub,2013-03-01 20:12:00,
2013-03-01 15:17:00,59.5,45.1,29.94,NW,314,7.0,12.0,59,0.00,,,0.00,meteohub,2013-03-01 20:17:00,
2013-03-01 15:22:00,59.7,45.3,29.94,WNW,302,9.0,13.0,59,0.00,,,0.00,meteohub,2013-03-01 20:22:00,
2013-03-01 15:27:00,59.5,45.1,29.94,NW,323,5.0,13.0,59,0.00,,,0.00,meteohub,2013-03-01 20:27:00,
2013-03-01 15:32:00,59.7,45.3,29.94,NW,304,5.0,13.0,59,0.00,,,0.00,meteohub,2013-03-01 20:32:00,
2013-03-01 15:37:00,59.7,45.0,29.94,West,263,7.0,12.0,58,0.00,,,0.00,meteohub,2013-03-01 20:37:00,
2013-03-01 15:42:00,60.4,45.1,29.94,WSW,243,7.0,12.0,57,0.00,,,0.00,meteohub,2013-03-01 20:42:00,
2013-03-01 15:47:00,60.3,45.0,29.95,NW,314,7.0,12.0,57,0.00,,,0.00,meteohub,2013-03-01 20:47:00,
2013-03-01 15:52:00,59.9,44.6,29.94,West,280,3.0,10.0,57,0.00,,,0.00,meteohub,2013-03-01 20:52:00,
2013-03-01 15:57:00,59.4,45.5,29.94,NW,316,4.0,10.0,60,0.00,,,0.00,meteohub,2013-03-01 20:57:00,
2013-03-01 16:02:00,59.2,43.9,29.94,WNW,298,4.0,10.0,57,0.00,,,0.00,meteohub,2013-03-01 21:02:00,
2013-03-01 16:07:00,58.8,45.0,29.94,West,276,4.0,9.0,60,0.00,,,0.00,meteohub,2013-03-01 21:07:00,
2013-03-01 16:12:00,58.6,44.8,29.94,NW,321,5.0,11.0,60,0.00,,,0.00,meteohub,2013-03-01 21:12:00,
2013-03-01 16:17:00,58.3,45.0,29.93,NW,304,6.0,11.0,61,0.00,,,0.00,meteohub,2013-03-01 21:17:00,
2013-03-01 16:23:00,57.7,44.8,29.94,NW,310,3.0,11.0,62,0.00,,,0.00,meteohub,2013-03-01 21:23:00,
2013-03-01 16:28:00,57.4,44.4,29.94,West,279,5.0,12.0,62,0.00,,,0.00,meteohub,2013-03-01 21:28:00,
2013-03-01 16:33:00,57.2,44.2,29.94,WNW,290,5.0,12.0,62,0.00,,,0.00,meteohub,2013-03-01 21:33:00,
2013-03-01 16:38:00,57.2,44.2,29.94,NW,307,4.0,12.0,62,0.00,,,0.00,meteohub,2013-03-01 21:38:00,
2013-03-01 16:43:00,57.2,43.9,29.94,WNW,300,4.0,10.0,61,0.00,,,0.00,meteohub,2013-03-01 21:43:00,
2013-03-01 16:48:00,57.0,43.7,29.94,NNW,328,5.0,9.0,61,0.00,,,0.00,meteohub,2013-03-01 21:48:00,
2013-03-01 16:53:00,57.0,43.3,29.94,WNW,296,2.0,9.0,60,0.00,,,0.00,meteohub,2013-03-01 21:53:00,
2013-03-01 16:58:00,57.0,43.3,29.94,West,281,5.0,9.0,60,0.00,,,0.00,meteohub,2013-03-01 21:58:00,
2013-03-01 17:03:00,57.0,42.8,29.94,WNW,295,4.0,9.0,59,0.00,,,0.00,meteohub,2013-03-01 22:03:00,
2013-03-01 17:09:00,56.8,42.3,29.94,WNW,288,6.0,8.0,58,0.00,,,0.00,meteohub,2013-03-01 22:09:00,
2013-03-01 17:14:00,56.7,42.1,29.94,WNW,303,5.0,10.0,58,0.00,,,0.00,meteohub,2013-03-01 22:14:00,
2013-03-01 17:19:00,56.5,41.9,29.94,WNW,292,3.0,10.0,58,0.00,,,0.00,meteohub,2013-03-01 22:19:00,
2013-03-01 17:24:00,56.5,41.0,29.94,WNW,298,5.0,10.0,56,0.00,,,0.00,meteohub,2013-03-01 22:24:00,
2013-03-01 17:29:00,56.1,40.6,29.94,WNW,293,5.0,9.0,56,0.00,,,0.00,meteohub,2013-03-01 22:29:00,
2013-03-01 17:34:00,56.1,41.2,29.94,NW,309,5.0,9.0,57,0.00,,,0.00,meteohub,2013-03-01 22:34:00,
2013-03-01 17:39:00,56.1,41.5,29.94,WNW,298,2.0,10.0,58,0.00,,,0.00,meteohub,2013-03-01 22:39:00,
2013-03-01 17:44:00,56.1,40.6,29.94,WNW,297,7.0,10.0,56,0.00,,,0.00,meteohub,2013-03-01 22:44:00,
2013-03-01 17:49:00,56.1,41.5,29.95,WNW,285,5.0,10.0,58,0.00,,,0.00,meteohub,2013-03-01 22:49:00,
2013-03-01 17:54:00,55.9,41.9,29.94,NW,316,5.0,8.0,59,0.00,,,0.00,meteohub,2013-03-01 22:54:00,
2013-03-01 17:59:00,55.8,41.7,29.95,WNW,290,5.0,8.0,59,0.00,,,0.00,meteohub,2013-03-01 22:59:00,
2013-03-01 18:04:00,55.8,41.7,29.96,WNW,294,2.0,8.0,59,0.00,,,0.00,meteohub,2013-03-01 23:04:00,
2013-03-01 18:09:00,55.6,41.9,29.96,NW,306,1.0,8.0,60,0.00,,,0.00,meteohub,2013-03-01 23:09:00,
2013-03-01 18:14:00,55.6,41.5,29.95,WNW,285,3.0,8.0,59,0.00,,,0.00,meteohub,2013-03-01 23:14:00,
2013-03-01 18:20:00,55.6,41.0,29.96,West,264,4.0,7.0,58,0.00,,,0.00,meteohub,2013-03-01 23:20:00,
2013-03-01 18:25:00,55.6,41.0,29.96,West,273,4.0,10.0,58,0.00,,,0.00,meteohub,2013-03-01 23:25:00,
2013-03-01 18:30:00,55.6,41.0,29.96,West,266,5.0,10.0,58,0.00,,,0.00,meteohub,2013-03-01 23:30:00,
2013-03-01 18:35:00,55.6,40.6,29.96,West,273,5.0,10.0,57,0.00,,,0.00,meteohub,2013-03-01 23:35:00,
2013-03-01 18:40:00,55.6,40.1,29.97,WNW,286,3.0,10.0,56,0.00,,,0.00,meteohub,2013-03-01 23:40:00,
2013-03-01 18:45:00,55.6,38.7,29.97,WNW,287,8.0,10.0,53,0.00,,,0.00,meteohub,2013-03-01 23:45:00,
2013-03-01 18:50:00,55.6,36.7,29.98,WNW,289,7.0,12.0,49,0.00,,,0.00,meteohub,2013-03-01 23:50:00,
2013-03-01 18:55:00,55.6,37.2,29.98,West,268,4.0,12.0,50,0.00,,,0.00,meteohub,2013-03-01 23:55:00,
2013-03-01 19:00:00,55.6,37.8,29.98,WNW,284,5.0,10.0,51,0.00,,,0.00,meteohub,2013-03-02 00:00:00,
2013-03-01 19:05:00,55.6,38.7,29.98,WNW,294,8.0,8.0,53,0.00,,,0.00,meteohub,2013-03-02 00:05:00,
2013-03-01 19:11:00,55.6,39.2,29.98,WNW,296,3.0,8.0,54,0.00,,,0.00,meteohub,2013-03-02 00:11:00,
2013-03-01 19:16:00,55.6,38.7,29.98,West,278,3.0,8.0,53,0.00,,,0.00,meteohub,2013-03-02 00:16:00,
2013-03-01 19:21:00,55.6,38.7,29.98,West,276,10.0,10.0,53,0.00,,,0.00,meteohub,2013-03-02 00:21:00,
2013-03-01 19:26:00,55.6,39.2,29.98,WNW,294,5.0,10.0,54,0.00,,,0.00,meteohub,2013-03-02 00:26:00,
2013-03-01 19:31:00,55.6,40.1,29.98,WNW,302,5.0,11.0,56,0.00,,,0.00,meteohub,2013-03-02 00:31:00,
2013-03-01 19:36:00,55.6,40.6,29.98,WSW,258,7.0,11.0,57,0.00,,,0.00,meteohub,2013-03-02 00:36:00,
2013-03-01 19:41:00,55.6,40.6,29.98,WSW,257,2.0,11.0,57,0.00,,,0.00,meteohub,2013-03-02 00:41:00,
2013-03-01 19:46:00,55.6,39.7,29.98,WNW,300,3.0,10.0,55,0.00,,,0.00,meteohub,2013-03-02 00:46:00,
2013-03-01 19:51:00,55.6,41.0,29.98,West,277,7.0,10.0,58,0.00,,,0.00,meteohub,2013-03-02 00:51:00,
2013-03-01 19:56:00,55.6,41.5,29.98,WNW,290,7.0,11.0,59,0.00,,,0.00,meteohub,2013-03-02 00:56:00,
2013-03-01 20:02:00,55.6,41.5,29.98,WNW,301,8.0,11.0,59,0.00,,,0.00,meteohub,2013-03-02 01:02:00,
2013-03-01 20:07:00,55.6,40.1,29.98,WNW,294,5.0,10.0,56,0.00,,,0.00,meteohub,2013-03-02 01:07:00,
2013-03-01 20:12:00,55.6,40.1,29.98,West,279,4.0,12.0,56,0.00,,,0.00,meteohub,2013-03-02 01:12:00,
2013-03-01 20:17:00,55.6,41.0,29.98,WNW,294,5.0,12.0,58,0.00,,,0.00,meteohub,2013-03-02 01:17:00,
2013-03-01 20:22:00,55.6,41.0,29.98,West,281,5.0,12.0,58,0.00,,,0.00,meteohub,2013-03-02 01:22:00,
2013-03-01 20:27:00,55.6,40.1,29.99,WNW,290,6.0,12.0,56,0.00,,,0.00,meteohub,2013-03-02 01:27:00,
2013-03-01 20:32:00,55.6,39.7,29.98,WNW,300,4.0,12.0,55,0.00,,,0.00,meteohub,2013-03-02 01:32:00,
2013-03-01 20:37:00,55.6,38.7,29.98,WNW,300,5.0,12.0,53,0.00,,,0.00,meteohub,2013-03-02 01:37:00,
2013-03-01 20:42:00,55.6,39.2,29.99,West,265,2.0,12.0,54,0.00,,,0.00,meteohub,2013-03-02 01:42:00,
2013-03-01 20:47:00,55.6,38.7,29.99,West,280,9.0,12.0,53,0.00,,,0.00,meteohub,2013-03-02 01:47:00,
2013-03-01 20:52:00,55.6,39.2,29.99,WNW,292,4.0,13.0,54,0.00,,,0.00,meteohub,2013-03-02 01:52:00,
2013-03-01 20:57:00,55.6,38.3,29.98,NW,320,4.0,13.0,52,0.00,,,0.00,meteohub,2013-03-02 01:57:00,
2013-03-01 21:02:00,55.6,38.7,29.99,West,281,7.0,14.0,53,0.00,,,0.00,meteohub,2013-03-02 02:02:00,
2013-03-01 21:07:00,55.6,39.7,29.99,WNW,290,6.0,14.0,55,0.00,,,0.00,meteohub,2013-03-02 02:07:00,
2013-03-01 21:12:00,55.4,39.6,30.00,WNW,295,5.0,14.0,55,0.00,,,0.00,meteohub,2013-03-02 02:12:00,
2013-03-01 21:17:00,55.2,39.4,30.00,WNW,288,8.0,13.0,55,0.00,,,0.00,meteohub,2013-03-02 02:17:00,
2013-03-01 21:22:00,55.2,39.4,29.99,WNW,298,3.0,13.0,55,0.00,,,0.00,meteohub,2013-03-02 02:22:00,
2013-03-01 21:27:00,55.2,39.7,29.99,WNW,302,6.0,14.0,56,0.00,,,0.00,meteohub,2013-03-02 02:27:00,
2013-03-01 21:32:00,55.2,40.3,30.00,West,277,8.0,14.0,57,0.00,,,0.00,meteohub,2013-03-02 02:32:00,
2013-03-01 21:37:00,55.2,40.3,29.99,West,261,8.0,13.0,57,0.00,,,0.00,meteohub,2013-03-02 02:37:00,
2013-03-01 21:42:00,55.2,40.6,30.00,NW,304,4.0,12.0,58,0.00,,,0.00,meteohub,2013-03-02 02:42:00,
2013-03-01 21:47:00,55.2,40.6,29.99,WNW,292,5.0,11.0,58,0.00,,,0.00,meteohub,2013-03-02 02:47:00,
2013-03-01 21:52:00,55.2,39.7,29.99,WNW,284,6.0,11.0,56,0.00,,,0.00,meteohub,2013-03-02 02:52:00,
2013-03-01 21:57:00,55.2,40.3,30.00,NW,314,5.0,11.0,57,0.00,,,0.00,meteohub,2013-03-02 02:57:00,
2013-03-01 22:02:00,55.2,39.7,29.99,WNW,290,4.0,12.0,56,0.00,,,0.00,meteohub,2013-03-02 03:02:00,
2013-03-01 22:07:00,55.2,39.7,29.99,WNW,286,3.0,12.0,56,0.00,,,0.00,meteohub,2013-03-02 03:07:00,
2013-03-01 22:12:00,55.2,40.3,29.99,WNW,298,6.0,12.0,57,0.00,,,0.00,meteohub,2013-03-02 03:12:00,
2013-03-01 22:17:00,55.2,40.3,29.99,WNW,302,5.0,10.0,57,0.00,,,0.00,meteohub,2013-03-02 03:17:00,
2013-03-01 22:22:00,55.2,39.7,29.99,WNW,300,3.0,11.0,56,0.00,,,0.00,meteohub,2013-03-02 03:22:00,
2013-03-01 22:27:00,55.2,40.6,29.99,WNW,297,6.0,11.0,58,0.00,,,0.00,meteohub,2013-03-02 03:27:00,
2013-03-01 22:32:00,55.2,40.6,29.99,NW,309,5.0,11.0,58,0.00,,,0.00,meteohub,2013-03-02 03:32:00,
2013-03-01 22:37:00,55.2,40.6,29.99,WNW,292,3.0,11.0,58,0.00,,,0.00,meteohub,2013-03-02 03:37:00,
2013-03-01 22:42:00,55.2,40.3,30.00,NW,319,4.0,12.0,57,0.00,,,0.00,meteohub,2013-03-02 03:42:00,
2013-03-01 22:47:00,55.2,39.7,30.00,NW,315,6.0,12.0,56,0.00,,,0.00,meteohub,2013-03-02 03:47:00,
2013-03-01 22:52:00,55.2,40.3,30.00,WNW,301,5.0,11.0,57,0.00,,,0.00,meteohub,2013-03-02 03:52:00,
2013-03-01 22:57:00,55.2,40.6,30.00,WNW,290,7.0,11.0,58,0.00,,,0.00,meteohub,2013-03-02 03:57:00,
2013-03-01 23:02:00,55.2,41.2,30.00,NW,324,4.0,11.0,59,0.00,,,0.00,meteohub,2013-03-02 04:02:00,
2013-03-01 23:07:00,55.2,41.2,30.00,NW,323,8.0,9.0,59,0.00,,,0.00,meteohub,2013-03-02 04:07:00,
2013-03-01 23:12:00,55.2,40.6,30.00,NW,325,6.0,9.0,58,0.00,,,0.00,meteohub,2013-03-02 04:12:00,
2013-03-01 23:17:00,55.4,40.8,30.00,WNW,298,6.0,15.0,58,0.00,,,0.00,meteohub,2013-03-02 04:17:00,
2013-03-01 23:22:00,55.4,40.8,30.00,WNW,299,4.0,15.0,58,0.00,,,0.00,meteohub,2013-03-02 04:22:00,
2013-03-01 23:28:00,55.2,40.6,30.00,NNW,343,4.0,15.0,58,0.00,,,0.00,meteohub,2013-03-02 04:28:00,
2013-03-01 23:33:00,55.2,39.7,29.99,NW,311,9.0,10.0,56,0.00,,,0.00,meteohub,2013-03-02 04:33:00,
2013-03-01 23:38:00,55.2,39.4,30.00,West,271,14.0,14.0,55,0.00,,,0.00,meteohub,2013-03-02 04:38:00,
2013-03-01 23:43:00,55.2,39.7,29.99,North,5,6.0,11.0,56,0.00,,,0.00,meteohub,2013-03-02 04:43:00,
2013-03-01 23:48:00,55.2,40.3,29.99,WNW,288,3.0,14.0,57,0.00,,,0.00,meteohub,2013-03-02 04:48:00,
2013-03-01 23:53:00,55.2,39.7,30.00,West,273,7.0,14.0,56,0.00,,,0.00,meteohub,2013-03-02 04:53:00,
2013-03-01 23:58:00,55.2,39.7,30.00,WNW,298,5.0,10.0,56,0.00,,,0.00,meteohub,2013-03-02 04:58:00,